Погода в Велланде

Канада     42°59′36″N   79°14′19″W
темп.,
°C
ветер,
м/с
пор.,
м/с
влажн.,
%
обл.,
%
осадки,
мм/ч
давл.,
гПа
погр.,
м
4 декабря, сб
сб401:00−1зсз127460 0.0 101943
04:00−1зюз2378100 0.0 101969
07:00+1юз41082100 0.0 1018685
10:00+4з71378100 0.0 10171017
13:00+4з71360100 0.1 10181575
16:00+3з611568 0.0 10191222
19:00+1з6126085 0.0 1022691
22:000з61162100 0.0 1024603
5 декабря, вс
вс501:000з4967100 0.0 1025472
04:000з3667100 0.0 1026220
07:00−1з2266100 0.0 102872
10:00+1юв1255100 0.0 1028366
13:00+2вюв4555100 0.0 1024674
16:00+3вюв51053100 0.0 1019523
19:00+5ююв61367100 0.1 1014676
22:00+8ю102269100 0.9 1008847
6 декабря, пн
пн601:00+9ююз102179100 5.8 1006981
04:00+10ююз112081100 1.4 10031013
07:00+11ююз111981100 1.9 1001856
10:00+9з91492100 7.3 1001699
13:00+5зюз91665100 8.0 10051379
16:00+3з9156667 0.1 10101620
19:00+1з714615 0.1 10141391
22:00−1з915675 0.0 10171386
7 декабря, вт
вт701:00−2з812625 0.0 10201151
04:00−3зсз61060100 0.0 10221164
07:00−3зсз4655100 0.0 10241213
10:00−2з344794 0.0 10261297
13:00−1зюз4542100 0.0 10261405
16:00−1зюз3345100 0.0 10251179
19:00−2з1244100 0.0 1026675
22:00−2в1246100 0.0 1025434
8 декабря, ср
ср801:00−2в2375100 0.0 1024471
04:00−2всв4581100 0.4 1022452
07:00−2в4783100 0.4 1020478
10:00−2всв4793100 1.3 1018445
13:00−1всв4793100 2.2 1015462
16:00−1всв4795100 0.7 1012439
19:00−2св3596100 0.9 1011257
22:00−2с2499100 0.1 1011186